Weather reports worldwide

Advertisment
Spa/La Sauveniere, Belgium (6490): temperature & dewpoint: 19.01.2020 18:00:00 - 25.01.2020 18:00:00 (CET)Spa/La Sauveniere, Belgium (6490): wind speed & gusts: 19.01.2020 18:00:00 - 25.01.2020 18:00:00 (CET)Spa/La Sauveniere, Belgium (6490): wind direction: 19.01.2020 18:00:00 - 25.01.2020 18:00:00 (CET)Spa/La Sauveniere, Belgium (6490): reduced air pressure: 19.01.2020 18:00:00 - 25.01.2020 18:00:00 (CET)Spa/La Sauveniere, Belgium (6490): visibility: 19.01.2020 18:00:00 - 25.01.2020 18:00:00 (CET)
Date & Time tt [°C] td [°C] ff [km/h] ff [kn] fx [km/h] fx [kn] dd ppp [hPa] vv [km]
25.01.2020 18:00:00 - - - - - - - - -
25.01.2020 17:00:00 4,6 0,9 11 6 14 8 S 1020,4 30
25.01.2020 16:00:00 5,6 2,8 11 6 - - S 1020,5 30
25.01.2020 15:00:00 7,2 3,8 7 4 22 12 WSW 1020,4 30
25.01.2020 14:00:00 5,2 2,0 11 6 22 12 S 1021,5 24
25.01.2020 13:00:00 3,4 1,4 18 10 - - S 1022,3 16
25.01.2020 12:00:00 2,2 0,3 22 12 25 14 SSE 1023,0 5
25.01.2020 11:00:00 1,2 -0,7 14 8 22 12 S 1022,9 -
25.01.2020 10:00:00 0,4 -2,7 14 8 - - SSE 1023,0 0,6
25.01.2020 09:00:00 0,4 -0,5 11 6 18 10 SSE 1022,6 0,8
25.01.2020 08:00:00 0,6 0,0 11 6 14 8 SSE 1022,4 0,3
25.01.2020 07:00:00 0,7 0,2 11 6 - - S 1022,1 0,6
25.01.2020 06:00:00 1,0 -1,2 7 4 29 16 SSW 1021,8 0,5
25.01.2020 05:00:00 0,8 -1,1 14 8 25 14 SSW 1022,1 1,1
25.01.2020 04:00:00 0,7 -2,4 11 6 - - SSW 1022,5 -
25.01.2020 03:00:00 -2,2 -3,8 4 2 14 8 SSE 1023,4 -
25.01.2020 02:00:00 -0,8 -3,0 7 4 29 16 SSW 1023,1 -
25.01.2020 01:00:00 -1,1 -3,9 14 8 - - S 1023,3 -
25.01.2020 00:00:00 -1,0 -4,1 7 4 25 14 SSW 1023,5 -
24.01.2020 23:00:00 -1,6 -3,3 18 10 25 14 SSE 1023,7 -
24.01.2020 22:00:00 -1,6 -3,8 22 12 - - SSE 1024,0 4,5
24.01.2020 21:00:00 -1,6 -3,9 18 10 29 16 SSE 1024,0 3,6
24.01.2020 20:00:00 -0,5 -3,3 18 10 32 18 SSE 1023,3 -
24.01.2020 19:00:00 -1,4 -4,1 4 2 - - - 1023,6 2,4
24.01.2020 18:00:00 -0,1 -4,8 22 12 29 16 SSE 1022,8 4,9
24.01.2020 17:00:00 0,2 -3,9 0 0 7 4 N 1023,2 -
24.01.2020 16:00:00 1,7 -2,6 4 2 - - W 1023,1 -
24.01.2020 15:00:00 1,9 -2,3 4 2 11 6 WNW 1023,1 -
24.01.2020 14:00:00 1,8 -0,8 4 2 11 6 SW 1023,4 -
24.01.2020 13:00:00 0,4 -2,3 4 2 - - - 1024,3 -
24.01.2020 12:00:00 -1,1 -4,0 14 8 25 14 SSE 1024,8 4,5
24.01.2020 11:00:00 -2,0 -3,8 7 4 36 19 SE 1024,9 4,1
24.01.2020 10:00:00 -2,9 -4,8 29 16 - - SSE 1024,6 3,6
24.01.2020 09:00:00 -3,1 -4,8 22 12 36 19 SSE 1024,8 2,6
24.01.2020 08:00:00 -3,1 -4,5 22 12 32 18 SSE 1024,8 1,6
24.01.2020 07:00:00 -2,9 -4,7 18 10 - - SSE 1024,7 1,5
24.01.2020 06:00:00 -3,0 -4,5 11 6 32 18 SE 1025,0 2,2
24.01.2020 05:00:00 -2,9 -5,1 22 12 32 18 SSE 1025,1 2,2
24.01.2020 04:00:00 -2,8 -4,6 4 2 - - - 1025,6 2,8
24.01.2020 03:00:00 -2,6 -4,3 11 6 36 19 - 1025,8 4,1
24.01.2020 02:00:00 -2,5 -4,1 14 8 29 16 S 1026,2 4,0
24.01.2020 01:00:00 -2,4 -4,3 11 6 - - SSE 1026,9 2,3
24.01.2020 00:00:00 -2,3 -4,5 18 10 25 14 SSE 1026,8 27
23.01.2020 23:00:00 -1,0 -3,8 11 6 22 12 SE 1026,8 30
23.01.2020 22:00:00 -1,3 -3,3 11 6 - - SE 1027,5 -
23.01.2020 21:00:00 -0,2 -2,0 7 4 14 8 SSE 1027,2 23
23.01.2020 20:00:00 0,3 -1,5 0 0 7 4 N 1027,2 5
23.01.2020 19:00:00 -0,4 -2,3 4 2 - - SSE 1027,9 -
23.01.2020 18:00:00 0,4 -1,4 0 0 7 4 N 1028,2 13
23.01.2020 17:00:00 2,1 -0,3 4 2 14 8 SE 1028,1 30
23.01.2020 16:00:00 2,5 0,1 7 4 - - SE 1028,6 35
23.01.2020 15:00:00 1,9 -0,5 11 6 18 10 SE 1029,8 24
23.01.2020 14:00:00 1,6 -0,6 11 6 18 10 SE 1030,6 15
23.01.2020 13:00:00 1,6 -0,9 7 4 - - SSE 1031,3 14
23.01.2020 12:00:00 1,0 -1,8 11 6 22 12 ESE 1031,7 -
23.01.2020 11:00:00 0,0 0,0 11 6 25 14 SE 1032,2 2,0
23.01.2020 10:00:00 -0,3 -2,5 7 4 - - ESE 1032,5 1,8
23.01.2020 09:00:00 -0,5 -1,8 32 18 43 23 SSE 1032,6 1,7
23.01.2020 08:00:00 -0,4 -2,2 7 4 14 8 - 1033,1 3,3
23.01.2020 07:00:00 -0,2 -2,6 4 2 - - ESE 1033,3 2,1
23.01.2020 06:00:00 0,0 -2,7 7 4 14 8 ESE 1033,8 3,8
23.01.2020 05:00:00 0,3 -2,2 11 6 14 8 ENE 1034,0 3,1
23.01.2020 04:00:00 0,7 -0,1 7 4 - - ESE 1034,7 -
23.01.2020 03:00:00 1,2 -0,9 7 4 25 14 E 1035,2 -
23.01.2020 02:00:00 1,8 -0,4 11 6 22 12 E 1035,7 35
23.01.2020 01:00:00 2,1 -0,9 7 4 - - E 1036,2 45
23.01.2020 00:00:00 1,9 1,1 11 6 18 10 E 1036,4 45
22.01.2020 23:00:00 1,7 -1,6 7 4 14 8 E 1036,6 35
22.01.2020 22:00:00 1,8 0,7 7 4 - - E 1036,7 -
22.01.2020 21:00:00 1,9 0,7 14 8 22 12 ENE 1036,9 16
22.01.2020 20:00:00 2,1 -0,5 7 4 18 10 ENE 1036,5 26
22.01.2020 19:00:00 2,2 0,5 7 4 - - ENE 1036,1 45
22.01.2020 18:00:00 2,1 -0,5 11 6 22 12 E 1035,9 35
22.01.2020 17:00:00 2,3 0,3 14 8 25 14 ENE 1035,8 45
22.01.2020 16:00:00 3,4 0,1 4 2 - - NE 1035,5 45
22.01.2020 15:00:00 4,0 -0,1 14 8 29 16 ENE 1035,5 45
22.01.2020 14:00:00 3,5 -1,5 7 4 14 8 ENE 1036,1 24
22.01.2020 13:00:00 0,7 -2,8 4 2 - - NW 1036,9 11
22.01.2020 12:00:00 0,5 -3,1 4 2 25 14 NNW 1037,3 20
22.01.2020 11:00:00 -2,0 -3,2 11 6 22 12 NNE 1038,3 0,7
22.01.2020 10:00:00 -2,8 -6,4 11 6 - - NNE 1038,1 35
22.01.2020 09:00:00 -2,7 -9,1 7 4 18 10 SSE 1037,2 50
22.01.2020 08:00:00 -1,6 -7,4 14 8 18 10 SSE 1036,5 50
22.01.2020 07:00:00 -1,3 -7,3 4 2 - - E 1037,2 45
22.01.2020 06:00:00 -2,4 -7,9 4 2 7 4 ESE 1037,8 45
22.01.2020 05:00:00 -2,2 -9,0 4 2 7 4 E 1038,1 45
22.01.2020 04:00:00 -2,0 -8,2 4 2 - - ESE 1038,5 50
22.01.2020 03:00:00 -2,7 -9,8 7 4 14 8 SSE 1038,9 50
22.01.2020 02:00:00 -1,9 -8,5 4 2 25 14 - 1038,9 50
22.01.2020 01:00:00 2,1 -6,2 18 10 - - SSE 1037,8 50
22.01.2020 00:00:00 1,3 -6,8 18 10 22 12 SSE 1038,3 45
21.01.2020 23:00:00 -1,1 -6,8 7 4 7 4 SE 1039,9 50
21.01.2020 22:00:00 -0,7 -7,4 7 4 - - ESE 1040,1 50
21.01.2020 21:00:00 -0,9 -7,6 7 4 7 4 ESE 1040,4 45
21.01.2020 20:00:00 -1,4 -7,5 4 2 7 4 ESE 1040,7 40
21.01.2020 19:00:00 -1,1 -7,8 4 2 - - SE 1040,7 20
21.01.2020 18:00:00 -0,4 -7,4 4 2 7 4 - 1041,0 23
21.01.2020 17:00:00 1,1 -5,5 4 2 11 6 NNE 1041,0 30
21.01.2020 16:00:00 2,6 -3,6 7 4 - - N 1040,8 29
21.01.2020 15:00:00 3,4 -4,4 7 4 11 6 N 1041,0 35
21.01.2020 14:00:00 3,2 -4,0 7 4 11 6 NNW 1041,5 30
21.01.2020 13:00:00 4,8 -0,9 7 4 - - ESE 1041,5 45
21.01.2020 12:00:00 3,3 -3,3 7 4 29 16 E 1042,5 40
21.01.2020 11:00:00 2,3 -2,8 18 10 32 18 SSE 1042,6 45
21.01.2020 10:00:00 0,7 -4,5 22 12 - - SSE 1042,9 45
21.01.2020 09:00:00 -0,2 -4,8 22 12 29 16 SSE 1043,2 45
21.01.2020 08:00:00 -0,5 -5,1 22 12 25 14 SSE 1043,0 45
21.01.2020 07:00:00 -0,2 -4,7 22 12 - - SSE 1042,9 35
21.01.2020 06:00:00 -0,8 -4,7 22 12 29 16 SSE 1043,2 29
21.01.2020 05:00:00 -0,6 -4,4 22 12 32 18 SSE 1043,6 30
21.01.2020 04:00:00 -0,2 -4,1 25 14 - - SSE 1043,7 25
21.01.2020 03:00:00 -0,7 -3,9 22 12 32 18 SSE 1044,6 25
21.01.2020 02:00:00 -1,3 -4,2 11 6 25 14 SE 1045,1 25
21.01.2020 01:00:00 -2,2 -4,7 4 2 - - NE 1046,1 21
21.01.2020 00:00:00 -1,5 -4,1 7 4 22 12 ENE 1046,3 21
20.01.2020 23:00:00 -0,5 -3,2 11 6 32 18 ESE 1045,8 30
20.01.2020 22:00:00 -0,2 -3,3 18 10 - - ESE 1045,9 30
20.01.2020 21:00:00 -1,3 -3,7 4 2 7 4 ESE 1046,5 17
20.01.2020 20:00:00 -1,8 -4,7 4 2 11 6 ESE 1046,7 16
20.01.2020 19:00:00 -0,5 -4,9 7 4 - - E 1046,7 24
20.01.2020 18:00:00 -0,2 -4,7 11 6 14 8 E 1046,8 40
20.01.2020 17:00:00 1,6 -3,0 7 4 14 8 ESE 1046,5 40
20.01.2020 16:00:00 2,6 -2,1 7 4 - - E 1046,8 35
20.01.2020 15:00:00 3,2 -1,4 11 6 18 10 ENE 1047,2 35
20.01.2020 14:00:00 3,4 -0,9 7 4 22 12 E 1047,4 35
20.01.2020 13:00:00 3,2 -0,1 14 8 - - ENE 1047,8 28
20.01.2020 12:00:00 2,2 1,0 4 2 7 4 NE 1048,6 7
20.01.2020 11:00:00 2,1 -0,5 0 0 7 4 N 1048,8 17
20.01.2020 10:00:00 0,9 -1,4 4 2 - - ESE 1048,6 14
20.01.2020 09:00:00 1,0 -2,3 4 2 11 6 ESE 1047,9 14
20.01.2020 08:00:00 0,9 -1,8 4 2 14 8 NNE 1047,5 8
20.01.2020 07:00:00 0,8 -2,2 4 2 - - NNW 1047,5 0,1
20.01.2020 06:00:00 0,8 0,5 0 0 11 6 N 1047,4 0,1
20.01.2020 05:00:00 0,6 -0,3 4 2 11 6 ENE 1047,2 0,5
20.01.2020 04:00:00 1,0 -0,1 7 4 - - ENE 1046,9 0,5
20.01.2020 03:00:00 1,2 0,4 7 4 14 8 NE 1047,3 0,3
20.01.2020 02:00:00 1,4 0,2 4 2 18 10 NNE 1047,1 3,6
20.01.2020 01:00:00 0,8 -0,4 7 4 - - ENE 1047,1 4,3
20.01.2020 00:00:00 1,1 0,2 7 4 14 8 NE 1047,0 2,6
19.01.2020 23:00:00 1,4 0,7 7 4 14 8 NE 1046,4 2,1
19.01.2020 22:00:00 1,6 0,6 7 4 - - NNE 1045,8 3,5
19.01.2020 21:00:00 1,7 0,4 7 4 18 10 NNE 1045,3 -
19.01.2020 20:00:00 1,9 0,7 7 4 22 12 N 1044,4 -
19.01.2020 19:00:00 2,1 0,9 11 6 - - NNE 1043,8 -
19.01.2020 18:00:00 2,0 1,1 11 6 18 10 N 1043,0 -

tt = temperature
td = dewpoint
ff = wind speed
fx = gusts
dd = wind direction
ppp = reduced air pressure
vv = visibility

Next stations